星链-30144 (STARLINK-30144 )

导读

STARLINK-30144是美国星链星座的组网卫星,于2023年6月4日发射升空,隶属于SpaceX公司的星链互联网卫星项目。星链项目旨在搭建全球覆盖的低轨卫星互联网系统,该卫星入轨后,承担为全球用户提供高速宽带互联网接入服务的任务,推进星链星座低轨通信网络的布局完善。

基本信息
目录编号:
56835
目录名称:
STARLINK-30144
国际标识:
2023-079N
轨道中心:
EARTH
卫星名称:
星链-30144
卫星全名:
星链-30144 (STARLINK-30144 )
卫星状态:
在轨 (已飞行1195 天)
发射日期:
2023-06-04 UTC
国别 :
美国 (US)
星等 :
--
该卫星已列入 空间交会检测服务 Space Conjunction Data Service (SCDS) ,当前飞行风险评估等级: 无高风险
轨道信息
数据来源 国际轨道数据
星历时间: 2026-09-10T21:00:07+0800
22小时前
查看轨道信息
半长轴: 6785.846km
偏心率: 0.0023485
轨道倾角: 42.988°
近地点辐角 237.209°
升交点赤经 121.807°
平近点角 122.651°
近地点: 391.772km
远地点: 423.646km
周期: 92.718分钟
每日圈数: 15.530905
详细信息
固有亮度:
5
最大亮度:
0.5
卫星平台:
Starlink v2.0 mini
覆盖范围:
全球
运营商:
太空探索技术公司
运营商所在国:
美国
制造商(研发单位):
太空探索技术公司
制造商所在国:
美国
使用方式:
暂无
卫星简介
星链(Starlink)计划是由太空探索技术公司(SpaceX)提出的一个巨型低轨卫星互联网星座项目,计划在2019年至2024年间在太空搭建由约1.2万颗卫星组成的“星链”网络,其中1584颗将部署在地球上空550千米处的近地轨道,并从2020年开始工作。该卫星仍在工作。
2D轨道图
3D轨道图
轨道高度分析图
轨道倾角分析图
轨道综合分析图
查看轨道综合分析图
与全量物体交会距离演化趋势
与全量物体交会风险概率演化趋势